[[{"header":{"parameterUnit":"m.s-1","parameterCategory":1,"la1":30.2991,"la2":30.254,"lo1":-89.0895,"lo2":-89.0444,"dy":0.0017,"dx":0.0017,"nx":28,"ny":28,"refTime":"2025-07-17T21:00:00:Z","depth":0,"parameterNumber":2,"parameterNumberName":"U-component_of_WINDS"},"data":[0,0,0,0,0,0,0,0,0,0,0,0,0,0,0,0,0,0,0,0,0,0,0,0,0,0,0,0,0,0,0,0,0,0,0,0,0,0,0,0,0,0,0,0,0,0,0,0,0,0,0,0,0,0,0,0,0,0,-3.2763,-3.2765,0,-3.2926,-3.2927,-3.2929,-3.3051,-3.3052,-3.3053,-3.3054,-3.3217,-3.322,-3.3223,0,0,0,0,0,0,0,0,0,0,0,0,0,-3.2555,-3.2558,-3.2763,-3.2765,-3.2767,-3.2925,-3.2927,-3.293,-3.3051,-3.3052,-3.3054,-3.3055,-3.3216,-3.322,-3.3224,0,0,0,0,0,0,0,0,0,0,0,0,0,-3.2674,-3.2559,-3.2762,-3.2847,-3.2856,-3.2925,-3.2928,-3.293,-3.3051,-3.3052,-3.3054,-3.3055,-3.3215,-3.3219,-3.3224,-3.3222,0,0,-3.3239,-3.3242,0,0,0,0,0,0,0,0,-3.2667,-3.2681,-3.2832,-3.2841,-3.2851,-3.297,-3.2914,-3.3028,-3.305,-3.2976,-3.3054,-3.3056,-3.3133,-3.3145,-3.3172,-3.3229,-3.3236,-3.324,-3.3243,-3.3245,-3.3246,0,0,0,0,0,0,0,-3.2659,-3.2675,-3.2827,-3.2834,-3.2846,-3.2875,-3.2894,-3.2936,-3.3043,-3.2983,-3.2992,-3.301,-3.3139,-3.3167,-3.3176,-3.3239,-3.324,-3.3244,-3.3247,-3.3249,-3.3303,-3.3302,0,0,0,0,0,0,-3.2638,-3.2667,-3.2822,-3.2832,-3.2762,-3.2878,-3.2899,-3.293,-3.3043,-3.3062,-3.3008,-3.3015,-3.3157,-3.317,-3.3182,-3.3187,-3.3245,-3.325,-3.3252,-3.3305,-3.3303,-3.3301,0,0,0,0,0,0,-3.2633,-3.265,-3.2815,-3.2752,-3.2776,-3.288,-3.2914,-3.2932,-3.296,-3.3063,-3.3082,-3.3017,-3.3159,-3.3176,-3.3212,-3.3194,-3.3252,-3.3256,-3.3306,-3.3304,-3.3302,-3.3195,0,0,0,0,0,0,-3.2626,-3.2648,-3.2648,-3.2752,-3.2779,-3.2842,-3.2913,-3.2934,-3.2969,-3.2979,-3.3076,-3.3094,-3.3162,-3.3203,-3.3216,-3.3202,-3.326,-3.3308,-3.3305,-3.3303,-3.32,-3.3189,-3.3179,0,0,0,0,0,-3.2619,-3.261,-3.2648,-3.2665,-3.2781,-3.284,-3.2856,-3.2935,-3.2967,-3.2968,-3.3034,-3.3091,-3.3195,-3.3206,-3.3222,-3.3208,-3.331,-3.3306,-3.3303,-3.3205,-3.3191,-3.318,0,0,0,0,0,0,-3.25,-3.2625,-3.2668,-3.2693,-3.2755,-3.2861,-3.2864,-3.2918,-3.2972,-3.2979,-3.3074,-3.3095,-3.3121,-3.3169,-3.3179,-3.3212,-3.3259,-3.3259,-3.3179,-3.3167,-3.3157,-3.3144,-3.3264,0,0,0,0,0,-3.2478,-3.2516,-3.2623,-3.2635,-3.2665,-3.2759,-3.2787,-3.2844,-3.2912,-3.2938,-3.3007,-3.3069,-3.3117,-3.3145,-3.3194,-3.3209,-3.3231,-3.3208,-3.3197,-3.3188,-3.3186,-3.3197,-3.3188,-3.329,-3.329,-3.329,0,0,-3.243,-3.2503,-3.2521,-3.2613,-3.2668,-3.2705,-3.278,-3.2816,-3.2844,-3.2943,-3.2981,-3.3034,-3.311,-3.3136,-3.315,-3.3176,-3.3163,-3.3184,-3.3176,-3.3179,-3.3193,-3.3183,-3.3174,-3.3288,-3.3288,-3.3288,0,0,-3.2362,-3.2422,-3.2439,-3.2493,-3.2576,-3.2639,-3.2643,-3.2741,-3.278,-3.2821,-3.2896,-3.2931,-3.301,-3.3061,-3.3098,-3.3052,-3.3106,-3.3066,-3.301,-3.302,-3.3012,-3.3005,-3.2988,-3.2981,-3.3063,-3.3063,-3.3063,0,-3.2292,-3.2351,-3.244,-3.2472,-3.2509,-3.2604,-3.2621,-3.2669,-3.2763,-3.2786,-3.2815,-3.2917,-3.2975,-3.3014,-3.3003,-3.303,-3.3037,-3.3053,-3.3006,-3.3001,-3.2996,-3.298,-3.2973,-3.3058,-3.3058,-3.3059,-3.3059,0,-3.2261,-3.2301,-3.2305,-3.2394,-3.2433,-3.2457,-3.2549,-3.2578,-3.2631,-3.2691,-3.2731,-3.2805,-3.2871,-3.2885,-3.2937,-3.2931,-3.2945,-3.2989,-3.3037,-3.2979,-3.2966,-3.296,-3.305,-3.3052,-3.3053,-3.3055,0,0,-3.2119,-3.226,-3.226,-3.2302,-3.2402,-3.2434,-3.2463,-3.2529,-3.2551,-3.2614,-3.2639,-3.2705,-3.2747,-3.2789,-3.2848,-3.2857,-3.2815,-3.29,-3.2904,-3.288,-3.2813,-3.2777,-3.2769,-3.2853,-3.2852,-3.2852,-3.2806,0,-3.2065,-3.2123,-3.2204,-3.2234,-3.2272,-3.2364,-3.2389,-3.2452,-3.251,-3.255,-3.2614,-3.2659,-3.2712,-3.2737,-3.2751,-3.2817,-3.2802,-3.2822,-3.2876,-3.2877,-3.2851,-3.2762,-3.2724,-3.2677,-3.2801,-3.28,-3.28,0,-3.2009,-3.2068,-3.2102,-3.22,-3.2219,-3.224,-3.2307,-3.2346,-3.242,-3.2461,-3.2508,-3.2573,-3.2608,-3.2654,-3.2703,-3.2714,-3.2742,-3.2778,-3.2779,-3.2784,-3.2832,-3.2763,-3.2664,-3.2656,-3.2793,-3.2793,-3.2794,0,-3.19,-3.1989,-3.2021,-3.2054,-3.2169,-3.2182,-3.2231,-3.2307,-3.2342,-3.2401,-3.2424,-3.2486,-3.2519,-3.2565,-3.2645,-3.2672,-3.2685,-3.2738,-3.2719,-3.2717,-3.2715,-3.2713,-3.2616,-3.2736,-3.2737,-3.2737,-3.2737,0,-3.183,-3.1846,-3.1973,-3.1992,-3.2014,-3.2108,-3.2127,-3.2184,-3.2251,-3.2283,-3.2367,-3.2394,-3.2499,-3.2539,-3.2602,-3.2632,-3.2647,-3.2681,-3.2696,-3.2672,-3.2667,-3.2689,-3.2693,-3.2735,-3.2735,-3.2736,-3.2736,0,-3.1711,-3.1796,-3.1837,-3.1944,-3.1972,-3.1982,-3.2074,-3.2096,-3.216,-3.2199,-3.2213,-3.2313,-3.2364,-3.245,-3.2525,-3.2568,-3.2586,-3.2614,-3.256,-3.257,-3.2546,-3.2546,-3.2457,-3.245,-3.2575,-3.2574,-3.2573,0,-3.1658,-3.1674,-3.1783,-3.1811,-3.1857,-3.1901,-3.1937,-3.2031,-3.2066,-3.2153,-3.2164,-3.2223,-3.2274,-3.2352,-3.243,-3.2489,-3.2519,-3.2484,-3.2528,-3.2502,-3.2516,-3.2513,-3.2514,-3.2472,-3.247,-3.2469,-3.2468,0,-3.1556,-3.1599,-3.1649,-3.1714,-3.1756,-3.1811,-3.1871,-3.1889,-3.1996,-3.2031,-3.2085,-3.2125,-3.2204,-3.2261,-3.2331,-3.2381,-3.2441,-3.2454,-3.2452,-3.2425,-3.2393,-3.2408,-3.253,-3.2454,-3.2456,-3.2457,-3.2457,-3.2458,-3.1468,-3.1486,-3.1566,-3.1619,-3.1675,-3.1729,-3.1755,-3.1824,-3.1871,-3.1943,-3.1996,-3.2047,-3.2123,-3.2224,-3.227,-3.2311,-3.2338,-3.2336,-3.2335,-3.2332,-3.2322,-3.2389,-3.2324,-3.2325,-3.2325,-3.2326,-3.2326,0,-3.1369,-3.1426,-3.1474,-3.1556,-3.1598,-3.1654,-3.1724,-3.1754,-3.1798,-3.1864,-3.1914,-3.1977,-3.2033,-3.2117,-3.218,-3.2196,-3.2225,-3.2209,-3.2207,-3.2217,-3.2295,-3.2289,-3.2184,-3.2184,-3.2184,-3.2184,-3.2184,-3.2184,-3.1322,-3.1355,-3.1407,-3.1469,-3.1526,-3.1577,-3.1612,-3.1662,-3.1716,-3.1782,-3.183,-3.1886,-3.1959,-3.2028,-3.2082,-3.2105,-3.2123,-3.2098,-3.2129,-3.2199,-3.2212,-3.2224,-3.2219,-3.2101,-3.2101,-3.2048,-3.2048,-3.2047]},{"header":{"parameterUnit":"m.s-1","parameterCategory":1,"la1":30.2991,"la2":30.254,"lo1":-89.0895,"lo2":-89.0444,"dy":0.0017,"dx":0.0017,"nx":28,"ny":28,"refTime":"2025-07-17T21:00:00:Z","depth":0,"parameterNumber":3,"parameterNumberName":"V-component_of_WINDS"},"data":[0,0,0,0,0,0,0,0,0,0,0,0,0,0,0,0,0,0,0,0,0,0,0,0,0,0,0,0,0,0,0,0,0,0,0,0,0,0,0,0,0,0,0,0,0,0,0,0,0,0,0,0,0,0,0,0,0,0,5.8517,5.8519,0,5.8756,5.8759,5.8761,5.8822,5.882,5.8819,5.8817,5.9057,5.9064,5.9072,0,0,0,0,0,0,0,0,0,0,0,0,0,5.8109,5.8116,5.8517,5.852,5.8523,5.8755,5.8759,5.8762,5.8822,5.882,5.8818,5.8816,5.9054,5.9063,5.9073,0,0,0,0,0,0,0,0,0,0,0,0,0,5.8311,5.8118,5.8516,5.8581,5.8589,5.8755,5.8759,5.8763,5.8822,5.882,5.8818,5.8816,5.9051,5.9062,5.9074,5.9191,0,0,5.911,5.9115,0,0,0,0,0,0,0,0,5.8299,5.8325,5.8568,5.8577,5.8586,5.8757,5.8703,5.8906,5.8823,5.8733,5.8817,5.8814,5.8958,5.8977,5.9027,5.9202,5.9212,5.9111,5.9118,5.9123,5.9126,0,0,0,0,0,0,0,5.8285,5.8316,5.8611,5.8572,5.8583,5.8597,5.8623,5.8742,5.8855,5.8741,5.8746,5.8774,5.8963,5.9016,5.9033,5.9216,5.911,5.9121,5.9128,5.9132,5.9501,5.9504,0,0,0,0,0,0,5.826,5.8303,5.8604,5.8618,5.8434,5.8606,5.8635,5.8704,5.8854,5.8875,5.8775,5.8776,5.8997,5.9019,5.9042,5.919,5.9123,5.9133,5.914,5.9499,5.9502,5.9505,0,0,0,0,0,0,5.8251,5.8287,5.8594,5.8463,5.8503,5.8615,5.8692,5.871,5.8763,5.888,5.8901,5.8809,5.8996,5.9025,5.9154,5.9199,5.9139,5.9149,5.9495,5.95,5.9503,5.9486,0,0,0,0,0,0,5.824,5.8283,5.8329,5.8463,5.851,5.8703,5.8695,5.8716,5.8784,5.8786,5.8917,5.8937,5.8996,5.9137,5.9166,5.9214,5.9158,5.9492,5.9497,5.9502,5.9483,5.9489,5.9494,0,0,0,0,0,5.8225,5.8313,5.8331,5.8367,5.857,5.8706,5.8732,5.8801,5.8787,5.8834,5.891,5.8932,5.919,5.9149,5.9183,5.9235,5.9489,5.9496,5.9502,5.948,5.9488,5.9494,0,0,0,0,0,0,5.8179,5.8332,5.8353,5.8488,5.8584,5.8715,5.8777,5.8806,5.8906,5.8904,5.8983,5.9012,5.9136,5.9199,5.9151,5.9357,5.9339,5.9353,5.9312,5.932,5.9325,5.9307,5.9168,0,0,0,0,0,5.8185,5.8284,5.8411,5.8518,5.8565,5.8663,5.8724,5.877,5.8871,5.8911,5.8996,5.9092,5.9196,5.9261,5.9362,5.9493,5.9523,5.9546,5.9551,5.9555,5.9565,5.9641,5.9652,5.9526,5.9526,5.9526,0,0,5.8197,5.8293,5.835,5.8511,5.8591,5.869,5.8696,5.8801,5.8876,5.8926,5.9054,5.912,5.9233,5.9364,5.9426,5.942,5.9607,5.9563,5.9566,5.9574,5.9648,5.966,5.9671,5.953,5.9529,5.9529,0,0,5.8271,5.8353,5.8452,5.8532,5.8654,5.8718,5.8742,5.8871,5.8917,5.9047,5.9088,5.9178,5.9353,5.9432,5.9495,5.9603,5.9627,5.9633,5.9662,5.9734,5.9744,5.9754,5.9792,5.9805,5.9643,5.9643,5.9643,0,5.827,5.8423,5.8498,5.8602,5.8672,5.8726,5.8826,5.89,5.9047,5.9093,5.9085,5.9308,5.9388,5.9539,5.9565,5.9615,5.9644,5.9618,5.9737,5.9747,5.9757,5.9795,5.9809,5.9643,5.9643,5.9643,5.9643,0,5.8417,5.8523,5.8588,5.8731,5.8809,5.891,5.9,5.9069,5.9108,5.9174,5.9306,5.9404,5.9527,5.9566,5.9604,5.9723,5.9716,5.9722,5.9705,5.9768,5.9804,5.9819,5.9643,5.9643,5.9643,5.9643,0,0,5.8465,5.8652,5.8674,5.8741,5.888,5.8963,5.9067,5.919,5.9248,5.9348,5.9437,5.9586,5.9593,5.9665,5.9713,5.9777,5.9856,5.9775,5.9779,5.9786,5.9994,5.9988,6.0004,5.9874,5.9877,5.988,5.9985,0,5.8556,5.8746,5.8817,5.8972,5.9071,5.9126,5.9217,5.9311,5.9376,5.9469,5.954,5.9645,5.9646,5.969,5.9756,5.9832,5.9899,5.9826,5.9957,5.9961,5.9926,6.0023,6.0017,6.0111,5.9999,6.0002,6.0004,0,5.8686,5.8791,5.8956,5.9086,5.913,5.9211,5.933,5.9418,5.9527,5.957,5.9652,5.9697,5.9808,5.9786,5.994,5.9889,5.9947,5.9993,5.9999,6.0013,5.9985,6.0039,6.0143,6.0156,6.0027,6.0025,6.0024,0,5.8705,5.8887,5.901,5.9066,5.922,5.9275,5.9342,5.9449,5.9519,5.9623,5.9669,5.9783,5.9846,5.9933,6.0008,5.9985,6.0155,6.0139,6.0193,6.0191,6.0225,6.0222,6.0339,6.0264,6.0264,6.0263,6.0263,0,5.8798,5.8897,5.9021,5.9096,5.9209,5.9291,5.94,5.947,5.9566,5.9655,5.9709,5.9792,5.9886,5.998,6.0039,6.0159,6.0186,6.0223,6.0238,6.0218,6.0214,6.0256,6.0252,6.0267,6.0266,6.0266,6.0265,0,5.8837,5.8924,5.9062,5.9198,5.9235,5.9312,5.9428,5.9503,5.9571,5.9684,5.9715,5.9823,5.9937,6.0021,6.0168,6.0208,6.0336,6.035,6.0299,6.0306,6.0356,6.035,6.0504,6.0528,6.0437,6.0438,6.0438,0,5.889,5.8968,5.9113,5.9178,5.9245,5.9349,5.9421,5.9505,5.9578,5.9711,5.977,5.9889,5.9989,6.017,6.026,6.0373,6.0391,6.0437,6.0408,6.0387,6.0391,6.0386,6.0394,6.044,6.0441,6.0441,6.0442,0,5.8974,5.9015,5.9118,5.9238,5.9323,5.942,5.9518,5.9568,5.967,5.9749,5.9869,5.9946,6.0099,6.0216,6.034,6.0407,6.0442,6.0451,6.047,6.045,6.0417,6.0436,6.031,6.0446,6.0446,6.0446,6.0445,6.0445,5.9022,5.9095,5.9209,5.9323,5.9406,5.9498,5.9576,5.9656,5.9757,5.9889,5.9933,6.0056,6.0166,6.0335,6.0405,6.0502,6.0501,6.0527,6.0534,6.0539,6.0538,6.0403,6.0525,6.0525,6.0525,6.0525,6.0525,0,5.911,5.9187,5.9291,5.9428,5.9518,5.9546,5.9656,5.9729,5.9838,5.9938,6.0036,6.0174,6.0289,6.039,6.0509,6.0568,6.0587,6.0597,6.0592,6.0608,6.0533,6.0505,6.0579,6.0579,6.0579,6.0579,6.0579,6.0579,5.9166,5.929,5.9345,5.9511,5.9588,5.9711,5.9772,5.9857,5.9937,6.009,6.0187,6.0252,6.0353,6.0481,6.0588,6.0615,6.0656,6.0662,6.0692,6.0619,6.0613,6.0606,6.0581,6.067,6.067,6.0759,6.076,6.0761]}]]